Change the Weather History Date:

Monday, October 28, 2013

  Actual Average (KTUL) Record (KTUL)
Temperature  
Mean Temperature 56 °F 58 °F  
Max Temperature 68 °F 69 °F 86 °F (1922)
Min Temperature 44 °F 47 °F 23 °F (1925)
Degree Days  
Heating Degree Days 9 8  
Month to date heating degree days 137  
Since 1 July heating degree days 161  
Cooling Degree Days 0 1  
Month to date cooling degree days 59  
Year to date cooling degree days 2024  
Growing Degree Days 6 (Base 50)    
Moisture  
Dew Point 52 °F    
Average Humidity 82    
Maximum Humidity 100    
Minimum Humidity 56    
Precipitation  
Precipitation 0.00 in 0.13 in 2.45 in (1974)
Month to date precipitation 3.56  
Year to date precipitation 35.30  
Sea Level Pressure  
Sea Level Pressure 30.11 in    
Wind  
Wind Speed 6 mph (SSE)    
Max Wind Speed 13 mph    
Max Gust Speed 18 mph    
Visibility 7 miles    
Events Fog , Rain    
T = Trace of Precipitation, MM = Missing Value Source: NWS Daily Summary

Daily Weather History Graph

Daily Weather History Graph

Search for Another Location

Airport or City:

Trip Planner

Search our weather history database for the weather conditions in past years. The results will help you decide how hot, cold, wet, or windy it might be!

Date:

Astronomy

Oct. 28, 2013 Rise Set
Actual Time 7:41 AM CDT 6:29 PM CDT
Civil Twilight 7:14 AM CDT 6:55 PM CDT
Nautical Twilight 6:44 AM CDT 7:26 PM CDT
Astronomical Twilight 6:14 AM CDT 7:56 PM CDT
Moon 1:45 AM CDT (10/28) 3:02 PM CDT (10/28)
Length of Visible Light 11h 41m
Length of Day
10h 48m
Waning Crescent, 34% of the Moon is Illuminated
Oct 28
Waning Crescent
Nov 3
New
Nov 9
First Quarter
Nov 17
Full
Nov 25
Last Quarter

Hourly Weather History & Observations

Time (CDT) Temp. Windchill Dew Point Humidity Pressure Visibility Wind Dir Wind Speed Gust Speed Precip Events Conditions
12:15 AM 46.4 °F 43.5 °F 42.8 °F 87% 30.05 in 10.0 mi South 5.8 mph - N/A   Clear
12:35 AM 44.6 °F 42.2 °F 42.8 °F 93% 30.05 in 7.0 mi SSE 4.6 mph - N/A   Clear
12:55 AM 46.4 °F 44.3 °F 44.6 °F 93% 30.05 in 5.0 mi South 4.6 mph - N/A   Clear
1:15 AM 44.6 °F 43.1 °F 44.6 °F 100% 30.05 in 4.0 mi SSE 3.5 mph - N/A   Clear
1:35 AM 46.4 °F - 44.6 °F 93% 30.05 in 1.5 mi Calm Calm - N/A   Mist
1:55 AM 44.6 °F 43.1 °F 44.6 °F 100% 30.05 in 0.2 mi South 3.5 mph - N/A Fog Fog
2:15 AM 50.0 °F - 50.0 °F 100% 30.06 in 0.2 mi South 3.5 mph - N/A Fog Fog
2:35 AM 51.8 °F - 50.0 °F 94% 30.06 in 0.2 mi SW 9.2 mph - N/A Fog Fog
2:55 AM 51.8 °F - 50.0 °F 94% 30.07 in 0.2 mi SW 6.9 mph - N/A   Light Drizzle
3:15 AM 51.8 °F - 50.0 °F 94% 30.07 in 0.2 mi SSW 5.8 mph - N/A   Light Drizzle
3:35 AM 51.8 °F - 51.8 °F 100% 30.08 in 0.2 mi SSW 6.9 mph - N/A Fog Fog
3:55 AM 51.8 °F - 51.8 °F 100% 30.08 in 0.2 mi SSW 4.6 mph - N/A Fog Fog
4:15 AM 51.8 °F - 51.8 °F 100% 30.07 in 0.8 mi South 4.6 mph - N/A   Overcast
4:35 AM 53.6 °F - 53.6 °F 100% 30.08 in 1.5 mi South 5.8 mph - N/A   Overcast
4:55 AM 53.6 °F - 53.6 °F 100% 30.08 in 2.5 mi South 4.6 mph - N/A   Overcast
5:15 AM 53.6 °F - 53.6 °F 100% 30.08 in 3.0 mi South 8.1 mph - N/A   Overcast
5:35 AM 53.6 °F - 53.6 °F 100% 30.09 in 3.0 mi SSW 9.2 mph - N/A   Overcast
5:55 AM 53.6 °F - 53.6 °F 100% 30.09 in 4.0 mi Calm Calm - N/A   Overcast
6:15 AM 53.6 °F - 53.6 °F 100% 30.10 in 3.0 mi SSE 3.5 mph - N/A   Overcast
6:35 AM 53.6 °F - 53.6 °F 100% 30.10 in 4.0 mi South 4.6 mph - N/A   Overcast
6:55 AM 53.6 °F - 53.6 °F 100% 30.11 in 4.0 mi SSE 3.5 mph - N/A   Overcast
7:15 AM 53.6 °F - 53.6 °F 100% 30.11 in 4.0 mi SSE 4.6 mph - N/A   Overcast
7:35 AM 53.6 °F - 53.6 °F 100% 30.12 in 3.0 mi SE 4.6 mph - N/A   Overcast
7:55 AM 53.6 °F - 53.6 °F 100% 30.13 in 4.0 mi SE 4.6 mph - N/A   Overcast
8:15 AM 53.6 °F - 53.6 °F 100% 30.14 in 3.0 mi SE 4.6 mph - N/A   Overcast
8:35 AM 53.6 °F - 53.6 °F 100% 30.15 in 3.0 mi SSE 6.9 mph - N/A   Overcast
8:55 AM 53.6 °F - 53.6 °F 100% 30.16 in 2.5 mi SSE 5.8 mph - N/A   Overcast
9:15 AM 53.6 °F - 53.6 °F 100% 30.16 in 1.8 mi SE 6.9 mph - N/A   Overcast
9:35 AM 53.6 °F - 53.6 °F 100% 30.17 in 2.0 mi SSE 6.9 mph - N/A   Overcast
9:55 AM 55.4 °F - 53.6 °F 94% 30.17 in 2.0 mi SE 8.1 mph - N/A   Overcast
10:15 AM 55.4 °F - 53.6 °F 94% 30.17 in 4.0 mi SE 6.9 mph - N/A   Overcast
10:35 AM 57.2 °F - 53.6 °F 88% 30.18 in 7.0 mi SSE 6.9 mph - N/A   Overcast
10:55 AM 59.0 °F - 53.6 °F 82% 30.17 in 10.0 mi SSE 5.8 mph - N/A   Overcast
11:15 AM 59.0 °F - 53.6 °F 82% 30.17 in 10.0 mi SE 6.9 mph - N/A   Overcast
11:35 AM 60.8 °F - 53.6 °F 77% 30.17 in 10.0 mi SSE 9.2 mph - N/A   Overcast
11:55 AM 62.6 °F - 53.6 °F 72% 30.17 in 10.0 mi SSE 8.1 mph - N/A   Overcast
12:15 PM 62.6 °F - 53.6 °F 72% 30.17 in 10.0 mi South 8.1 mph - N/A   Overcast
12:35 PM 64.4 °F - 53.6 °F 68% 30.17 in 10.0 mi South 9.2 mph - N/A   Overcast
12:55 PM 64.4 °F - 53.6 °F 68% 30.16 in 10.0 mi SSE 11.5 mph 16.1 mph N/A   Mostly Cloudy
1:15 PM 64.4 °F - 53.6 °F 68% 30.15 in 10.0 mi SSE 10.4 mph - N/A   Scattered Clouds
1:35 PM 68.0 °F - 53.6 °F 60% 30.14 in 10.0 mi SSE 10.4 mph - N/A   Mostly Cloudy
1:55 PM 68.0 °F - 51.8 °F 56% 30.13 in 10.0 mi SSE 9.2 mph - N/A   Mostly Cloudy
2:15 PM 68.0 °F - 53.6 °F 60% 30.13 in 10.0 mi SE 11.5 mph 18.4 mph N/A   Scattered Clouds
2:35 PM 68.0 °F - 53.6 °F 60% 30.12 in 10.0 mi SSE 10.4 mph 16.1 mph N/A   Scattered Clouds
2:55 PM 68.0 °F - 51.8 °F 56% 30.12 in 10.0 mi SSE 8.1 mph 16.1 mph N/A   Scattered Clouds
3:15 PM 68.0 °F - 51.8 °F 56% 30.11 in 10.0 mi SSE 9.2 mph - N/A   Clear
3:35 PM 68.0 °F - 51.8 °F 56% 30.11 in 10.0 mi SSE 10.4 mph - N/A   Clear
3:55 PM 68.0 °F - 51.8 °F 56% 30.10 in 10.0 mi SE 11.5 mph 16.1 mph N/A   Clear
4:15 PM 66.2 °F - 51.8 °F 60% 30.10 in 10.0 mi SSE 12.7 mph - N/A   Clear
4:35 PM 66.2 °F - 51.8 °F 60% 30.11 in 10.0 mi SSE 11.5 mph - N/A   Mostly Cloudy
4:55 PM 66.2 °F - 51.8 °F 60% 30.09 in 10.0 mi SE 10.4 mph - N/A   Mostly Cloudy
5:15 PM 68.0 °F - 53.6 °F 60% 30.09 in 10.0 mi SE 11.5 mph - N/A   Scattered Clouds
5:35 PM 66.2 °F - 51.8 °F 60% 30.09 in 10.0 mi SE 11.5 mph - N/A   Clear
5:55 PM 64.4 °F - 51.8 °F 64% 30.09 in 10.0 mi SE 8.1 mph - N/A   Clear
6:15 PM 64.4 °F - 53.6 °F 68% 30.09 in 10.0 mi SSE 6.9 mph - N/A   Scattered Clouds
6:35 PM 64.4 °F - 53.6 °F 68% 30.09 in 10.0 mi SE 5.8 mph - N/A   Scattered Clouds
6:55 PM 62.6 °F - 53.6 °F 72% 30.09 in 10.0 mi SE 5.8 mph - N/A   Scattered Clouds
7:15 PM 62.6 °F - 53.6 °F 72% 30.10 in 10.0 mi ESE 6.9 mph - N/A   Mostly Cloudy
7:35 PM 60.8 °F - 53.6 °F 77% 30.10 in 10.0 mi ESE 8.1 mph - N/A   Scattered Clouds
7:55 PM 60.8 °F - 53.6 °F 77% 30.11 in 10.0 mi ESE 9.2 mph - N/A   Clear
8:15 PM 60.8 °F - 53.6 °F 77% 30.11 in 10.0 mi ESE 5.8 mph - N/A   Scattered Clouds
8:35 PM 60.8 °F - 53.6 °F 77% 30.12 in 10.0 mi ESE 8.1 mph - N/A   Mostly Cloudy
8:55 PM 62.6 °F - 53.6 °F 72% 30.13 in 10.0 mi ESE 6.9 mph - N/A   Overcast
9:15 PM 60.8 °F - 53.6 °F 77% 30.13 in 10.0 mi ESE 5.8 mph - N/A   Overcast
9:35 PM 60.8 °F - 53.6 °F 77% 30.12 in 10.0 mi ESE 8.1 mph - N/A   Mostly Cloudy
9:55 PM 60.8 °F - 53.6 °F 77% 30.13 in 10.0 mi ESE 8.1 mph - N/A   Overcast
10:15 PM 60.8 °F - 53.6 °F 77% 30.13 in 10.0 mi ESE 9.2 mph - N/A   Overcast
10:35 PM 60.8 °F - 53.6 °F 77% 30.14 in 10.0 mi ESE 8.1 mph - N/A   Mostly Cloudy
10:55 PM 60.8 °F - 53.6 °F 77% 30.13 in 10.0 mi ESE 8.1 mph - N/A Rain Light Rain
11:15 PM 60.8 °F - 55.4 °F 82% 30.14 in 10.0 mi ESE 5.8 mph - N/A   Scattered Clouds
11:35 PM 60.8 °F - 55.4 °F 82% 30.13 in 10.0 mi ESE 5.8 mph - N/A   Mostly Cloudy
11:55 PM 59.0 °F - 55.4 °F 88% 30.12 in 7.0 mi ESE 5.8 mph - N/A Rain Rain